[[{"header":{"parameterUnit":"m.s-1","parameterCategory":2,"la1":30.2992,"la2":30.254,"lo1":-89.0895,"lo2":-89.0443,"dy":0.0025,"dx":0.0025,"nx":19,"ny":19,"refTime":"2026-04-03T21:00:00:Z","depth":"0","parameterNumber":2,"parameterNumberName":"U-component_of_CURRENTS"},"data":[0,0,0,0.1548,0.1546,0.1392,0.1391,0.1173,0.1172,0,0,0,0,0,0,0,0,0,0,0,0.1583,0.1582,0.1548,0.1545,0.1392,0.1391,0.1174,0.1172,0,0,0,0,0,0,0,0,0,0,0,0.1583,0.1582,0.1581,0.1545,0.1392,0.1391,0.1174,0.1286,0,0,0,0,0,0,0,0,0,0,0.1434,0.1488,0.1583,0.1581,0.1544,0.1393,0.1391,0.1292,0.1279,0.1248,0,0.1233,0,0.1221,0.116,0.116,0,0,0,0.1509,0.1499,0.1462,0.1581,0.1544,0.1393,0.1451,0.1285,0.1271,0.1232,0.123,0.1223,0.1217,0.1159,0.1158,0.1077,0.1078,0,0,0.1517,0.1545,0.1472,0.1454,0.1515,0.1456,0.1447,0.1276,0.1264,0.123,0.1218,0.1214,0.1158,0.1156,0.1077,0.1077,0,0,0,0.1566,0.1551,0.1517,0.1462,0.1449,0.1453,0.1442,0.127,0.1261,0.1216,0.1211,0.1157,0.1155,0.1076,0.1077,0.1104,0,0,0,0.157,0.1582,0.1522,0.1535,0.1453,0.1364,0.144,0.1271,0.1253,0.1212,0.1157,0.1153,0.1076,0.1077,0.1102,0.1106,0,0,0,0.1588,0.1584,0.1571,0.1537,0.149,0.1366,0.1345,0.1266,0.1252,0.1159,0.1153,0.1076,0.1077,0.1101,0.1103,0.1083,0,0,0,0.1614,0.1542,0.1571,0.1487,0.1492,0.1384,0.1346,0.1254,0.1176,0.1156,0.1076,0.1077,0.11,0.1102,0.1083,0.1006,0.1004,0,0,0.1525,0.1532,0.1479,0.1501,0.1407,0.1402,0.1318,0.1214,0.1188,0.1123,0.112,0.1103,0.1103,0.1083,0.1065,0.106,0,0,0,0.145,0.142,0.1391,0.1354,0.1309,0.1295,0.1225,0.1217,0.1171,0.1156,0.1116,0.1115,0.1101,0.1055,0.1052,0.1012,0.1082,0.1082,0.1081,0.1332,0.133,0.1263,0.126,0.1226,0.1216,0.1202,0.1194,0.1157,0.1175,0.1147,0.1165,0.1118,0.1114,0.1075,0.1163,0.1163,0.1164,0.1164,0.1209,0.1175,0.1212,0.1153,0.1188,0.1152,0.1178,0.119,0.1192,0.1187,0.1171,0.1099,0.1111,0.1072,0.1166,0.1165,0.1165,0.1165,0.1165,0.1136,0.1129,0.1121,0.1106,0.1111,0.1134,0.1151,0.1186,0.1199,0.1211,0.1123,0.1121,0.1073,0.1189,0.1189,0.1189,0.1189,0.1189,0.1189,0.107,0.107,0.1057,0.1057,0.1062,0.1084,0.1135,0.1149,0.1143,0.114,0.1139,0.1075,0.1171,0.1155,0.1188,0.1188,0.1188,0.1188,0.1188,0.0979,0.101,0.0975,0.0978,0.0993,0.0968,0.1044,0.1027,0.1054,0.1022,0.1002,0.1093,0.1067,0.1068,0.105,0.1053,0.1053,0.1053,0.1053,0.0941,0.0947,0.0905,0.0888,0.0892,0.0904,0.0847,0.0874,0.0894,0.0894,0.0927,0.091,0.0918,0.0883,0.0888,0.0866,0.0823,0.0823,0.0823,0.0911,0.0895,0.0843,0.0821,0.0822,0.0807,0.0706,0.0686,0.0761,0.0813,0.089,0.09,0.0879,0.0893,0.0841,0.0852,0.0817,0,0]},{"header":{"parameterUnit":"m.s-1","parameterCategory":2,"la1":30.2992,"la2":30.254,"lo1":-89.0895,"lo2":-89.0443,"dy":0.0025,"dx":0.0025,"nx":19,"ny":19,"refTime":"2026-04-03T21:00:00:Z","depth":"0","parameterNumber":3,"parameterNumberName":"V-component_of_CURRENTS"},"data":[0,0,0,-0.0344,-0.0343,-0.0254,-0.0254,-0.0085,-0.0084,0,0,0,0,0,0,0,0,0,0,0,-0.0369,-0.0369,-0.0344,-0.0343,-0.0255,-0.0254,-0.0086,-0.0084,0,0,0,0,0,0,0,0,0,0,0,-0.0369,-0.0369,-0.0368,-0.0343,-0.0255,-0.0254,-0.0086,-0.016,0,0,0,0,0,0,0,0,0,0,-0.025,-0.0291,-0.0369,-0.0368,-0.0343,-0.0255,-0.0254,-0.0164,-0.0155,-0.0118,0,-0.0119,0,-0.0111,-0.0074,-0.0074,0,0,0,-0.0316,-0.0298,-0.028,-0.0368,-0.0342,-0.0255,-0.0287,-0.0159,-0.015,-0.0107,-0.0117,-0.0111,-0.0108,-0.0073,-0.0072,0.0008,0.0008,0,0,-0.0321,-0.0339,-0.0287,-0.0275,-0.0336,-0.029,-0.0285,-0.0154,-0.0146,-0.0116,-0.0107,-0.0105,-0.0072,-0.0071,0.0009,0.0008,0,0,0,-0.0353,-0.0343,-0.0328,-0.0281,-0.0277,-0.0288,-0.0282,-0.0151,-0.0149,-0.0105,-0.0103,-0.0071,-0.0069,0.0009,0.0009,0.002,0,0,0,-0.0355,-0.0364,-0.0331,-0.0339,-0.028,-0.0222,-0.0282,-0.0158,-0.0143,-0.0104,-0.0071,-0.0068,0.0009,0.0009,0.002,0.0056,0,0,0,-0.037,-0.0365,-0.0362,-0.0341,-0.0316,-0.0224,-0.0212,-0.0154,-0.0143,-0.0073,-0.0068,0.0009,0.0009,0.002,0.0055,0.0135,0,0,0,-0.038,-0.037,-0.0362,-0.0348,-0.0317,-0.0266,-0.0213,-0.016,-0.0107,-0.007,0.0009,0.0009,0.002,0.0055,0.0133,0.0206,0.022,0,0,-0.0371,-0.037,-0.0361,-0.0352,-0.0314,-0.0275,-0.0216,-0.0129,-0.0102,-0.0024,-0.0022,0.002,0.0055,0.0134,0.0172,0.0188,0,0,0,-0.036,-0.035,-0.0339,-0.0316,-0.0285,-0.0224,-0.0164,-0.0127,-0.0057,-0.0079,0.0005,0.0027,0.0078,0.0116,0.0128,0.0124,0.0006,0.0006,0.0006,-0.0324,-0.0322,-0.0292,-0.0275,-0.0247,-0.0184,-0.0124,-0.0065,-0.0054,-0.0036,0.0024,0.0077,0.0114,0.0125,0.0117,-0.0007,-0.0007,-0.0007,-0.0007,-0.0282,-0.0251,-0.0251,-0.0225,-0.0185,-0.0138,-0.0058,-0.0037,0.0063,0.0028,0.0076,0.0109,0.0139,0.0126,-0.0007,-0.0007,-0.0007,-0.0007,-0.0007,-0.0231,-0.0214,-0.0214,-0.0175,-0.0123,-0.0085,0.0029,0.0062,0.0095,0.0139,0.0218,0.0218,0.0225,0.0166,0.0167,0.0167,0.0168,0.0168,0.0168,-0.0166,-0.0166,-0.0128,-0.0109,-0.0067,0.0004,0.0099,0.0177,0.0257,0.0265,0.0266,0.0242,0.0132,0.0146,0.0176,0.0174,0.0173,0.0173,0.0172,-0.0072,-0.0088,-0.0027,0.0011,0.0099,0.0201,0.0252,0.0392,0.0458,0.0508,0.0419,0.0348,0.0372,0.0362,0.0382,0.0472,0.0472,0.0472,0.0472,0.0003,-0.0008,0.0091,0.0167,0.0265,0.0313,0.0491,0.0561,0.0583,0.0575,0.0538,0.0482,0.047,0.0496,0.0483,0.0503,0.0621,0.0621,0.0621,0.0087,0.0096,0.0192,0.0235,0.0342,0.0447,0.0582,0.0649,0.0651,0.0622,0.0519,0.0513,0.0419,0.0401,0.0427,0.0409,0.0436,0,0]}],[{"header":{"parameterUnit":"m.s-1","parameterCategory":2,"la1":30.2992,"la2":30.254,"lo1":-89.0895,"lo2":-89.0443,"dy":0.0025,"dx":0.0025,"nx":19,"ny":19,"refTime":"2026-04-03T21:00:00:Z","depth":"2","parameterNumber":2,"parameterNumberName":"U-component_of_CURRENTS"},"data":[0,0,0,0.1027,0.1028,0.1057,0.1057,0.1035,0.1035,0,0,0,0,0,0,0,0,0,0,0,0.1024,0.1024,0.1027,0.1028,0.1056,0.1057,0.1035,0.1035,0,0,0,0,0,0,0,0,0,0,0,0.1024,0.1024,0.1024,0.1028,0.1056,0.1057,0.1035,0.1029,0,0,0,0,0,0,0,0,0,0,0.1008,0.1025,0.1024,0.1024,0.1028,0.1056,0.1057,0.1029,0.1029,0.1005,0,0.1015,0,0.1019,0.1032,0.1032,0,0,0,0.103,0.1026,0.1019,0.1024,0.1028,0.1056,0.1044,0.103,0.103,0.1005,0.1015,0.1014,0.1019,0.1032,0.1031,0.1034,0.1034,0,0,0.1029,0.104,0.1019,0.1019,0.1042,0.1043,0.1045,0.103,0.104,0.1015,0.1014,0.1018,0.1031,0.1031,0.1033,0.1034,0,0,0,0.1023,0.1039,0.1034,0.102,0.1026,0.1044,0.1046,0.1041,0.1036,0.1014,0.1018,0.1031,0.103,0.1033,0.1033,0.1077,0,0,0,0.1022,0.1035,0.1034,0.1042,0.1027,0.1045,0.1057,0.1037,0.1035,0.1018,0.1031,0.103,0.1033,0.1033,0.1075,0.1082,0,0,0,0.1021,0.1035,0.1037,0.1042,0.1051,0.1045,0.104,0.1037,0.1037,0.1032,0.103,0.1032,0.1033,0.1073,0.1079,0.1066,0,0,0,0.1032,0.1028,0.1038,0.1041,0.1051,0.1055,0.1041,0.1048,0.1046,0.1031,0.1033,0.1033,0.1073,0.1078,0.1065,0.0968,0.0966,0,0,0.1024,0.1028,0.1027,0.1035,0.1041,0.1051,0.107,0.1064,0.1051,0.1032,0.1033,0.1076,0.1079,0.1066,0.1018,0.1014,0,0,0,0.1022,0.1021,0.1025,0.1037,0.1045,0.1073,0.1074,0.1078,0.1088,0.1054,0.1081,0.1082,0.1072,0.1011,0.1009,0.1038,0.1037,0.1037,0.1037,0.1021,0.1024,0.103,0.104,0.1057,0.1088,0.1113,0.1122,0.1103,0.1123,0.1122,0.1147,0.1086,0.1082,0.1133,0.1133,0.1133,0.1134,0.1134,0.1002,0.0996,0.1033,0.1036,0.1078,0.1102,0.1144,0.1157,0.1175,0.1164,0.1153,0.1067,0.108,0.1137,0.1137,0.1136,0.1136,0.1135,0.1135,0.0976,0.0974,0.0994,0.1025,0.1069,0.1114,0.1145,0.1187,0.1198,0.1214,0.1109,0.1106,0.1151,0.1195,0.1195,0.1195,0.1195,0.1195,0.1195,0.0937,0.0955,0.0976,0.1012,0.104,0.1084,0.1145,0.1151,0.1138,0.1136,0.1135,0.1167,0.1165,0.1153,0.1195,0.1195,0.1195,0.1195,0.1195,0.0882,0.0915,0.0921,0.0949,0.1004,0.0977,0.1059,0.1019,0.1044,0.0997,0.1082,0.1085,0.105,0.1051,0.1036,0.1045,0.1045,0.1045,0.1045,0.0857,0.0872,0.0869,0.0882,0.0905,0.0919,0.0846,0.0847,0.0886,0.0918,0.0923,0.0898,0.0907,0.0863,0.0868,0.0849,0.081,0.0809,0.0809,0.0842,0.0836,0.0805,0.0815,0.0832,0.0818,0.0694,0.0642,0.0699,0.0803,0.0915,0.1023,0.1001,0.1008,0.0952,0.0956,0.0929,0,0]},{"header":{"parameterUnit":"m.s-1","parameterCategory":2,"la1":30.2992,"la2":30.254,"lo1":-89.0895,"lo2":-89.0443,"dy":0.0025,"dx":0.0025,"nx":19,"ny":19,"refTime":"2026-04-03T21:00:00:Z","depth":"2","parameterNumber":3,"parameterNumberName":"V-component_of_CURRENTS"},"data":[0,0,0,-0.0108,-0.0111,-0.0175,-0.0175,-0.0007,-0.0006,0,0,0,0,0,0,0,0,0,0,0,-0.0067,-0.0068,-0.0108,-0.0111,-0.0175,-0.0175,-0.0008,-0.0006,0,0,0,0,0,0,0,0,0,0,0,-0.0066,-0.0067,-0.0069,-0.0111,-0.0175,-0.0175,-0.0008,-0.0011,0,0,0,0,0,0,0,0,0,0,0.0024,0.0015,-0.0067,-0.0069,-0.0112,-0.0176,-0.0175,-0.0014,-0.0011,0.008,0,0.0045,0,0.0002,0.0007,0.0008,0,0,0,-0.0068,0.0012,-0.002,-0.0069,-0.0113,-0.0176,-0.0134,-0.0014,-0.001,0.0085,0.0046,0.005,0.0005,0.0009,0.001,0.0149,0.015,0,0,-0.0065,-0.005,-0.0024,-0.002,-0.0157,-0.0133,-0.0137,-0.0014,-0.0006,0.0047,0.0052,0.0007,0.001,0.0011,0.0149,0.0149,0,0,0,-0.0083,-0.0047,-0.0087,-0.0024,-0.0068,-0.0136,-0.014,-0.0011,-0.0031,0.0054,0.0009,0.0011,0.0014,0.0149,0.0149,0.0083,0,0,0,-0.0079,-0.0062,-0.0086,-0.0073,-0.0073,-0.0076,-0.0139,-0.0038,-0.0028,0.0009,0.0011,0.0015,0.0149,0.0149,0.0085,0.0108,0,0,0,-0.0059,-0.0059,-0.008,-0.0073,-0.0125,-0.0081,-0.0091,-0.0038,-0.0055,0.0008,0.0016,0.0149,0.0149,0.0086,0.011,0.0184,0,0,0,-0.002,-0.0052,-0.008,-0.0115,-0.0125,-0.0141,-0.0093,-0.0084,-0.0039,0.0012,0.0149,0.0149,0.0086,0.011,0.0183,0.0224,0.0231,0,0,-0.0036,-0.0053,-0.0072,-0.01,-0.0135,-0.0127,-0.011,-0.0043,0.0004,0.0135,0.0136,0.0084,0.011,0.0183,0.0234,0.0241,0,0,0,-0.006,-0.0073,-0.0086,-0.012,-0.0137,-0.0121,-0.0084,-0.0048,0.0021,0.0019,0.0107,0.0127,0.0175,0.0198,0.0203,0.015,0.015,0.015,0.015,-0.0039,-0.0066,-0.0087,-0.0114,-0.0116,-0.0103,-0.0067,-0.0002,0.0027,0.0037,0.0086,0.0122,0.0142,0.0148,0.0075,0.0075,0.0075,0.0075,0.0075,-0.0042,-0.005,-0.0076,-0.0109,-0.0107,-0.0088,-0.0023,-0.0013,0.0086,0.007,0.0119,0.0143,0.015,0.007,0.0071,0.0071,0.0072,0.0072,0.0072,-0.0002,-0.0012,-0.0048,-0.0086,-0.0085,-0.0077,0.001,0.0032,0.007,0.0096,0.0188,0.019,0.0127,0.0123,0.0123,0.0124,0.0124,0.0124,0.0125,0.0049,0.0016,-0.0007,-0.0052,-0.0055,-0.0028,0.0043,0.0111,0.0172,0.0179,0.018,0.0142,0.014,0.0134,0.0131,0.013,0.0129,0.0128,0.0128,0.0079,0.0061,0.0052,0.0038,0.0046,0.0118,0.0163,0.0272,0.0334,0.0369,0.0249,0.0244,0.03,0.0296,0.0297,0.0337,0.0337,0.0337,0.0337,0.0107,0.0092,0.0108,0.013,0.0179,0.0206,0.0342,0.0386,0.0392,0.0368,0.0366,0.0313,0.0305,0.0359,0.0353,0.0355,0.0409,0.0409,0.0409,0.011,0.0127,0.0156,0.0175,0.0238,0.0314,0.0395,0.0415,0.0404,0.0409,0.0348,0.0348,0.0263,0.0252,0.0329,0.0323,0.0323,0,0]}],[{"header":{"parameterUnit":"m.s-1","parameterCategory":2,"la1":30.2992,"la2":30.254,"lo1":-89.0895,"lo2":-89.0443,"dy":0.0025,"dx":0.0025,"nx":19,"ny":19,"refTime":"2026-04-03T21:00:00:Z","depth":"4","parameterNumber":2,"parameterNumberName":"U-component_of_CURRENTS"},"data":[0,0,0,0.0265,0.0267,0.0393,0.0393,0.0544,0.0545,0,0,0,0,0,0,0,0,0,0,0,0.0237,0.0238,0.0265,0.0267,0.0393,0.0394,0.0544,0.0545,0,0,0,0,0,0,0,0,0,0,0,0.0237,0.0238,0.0239,0.0268,0.0393,0.0394,0.0544,0.0455,0,0,0,0,0,0,0,0,0,0,0.0336,0.0303,0.0238,0.0239,0.0268,0.0392,0.0394,0.0451,0.0461,0.0479,0,0.0503,0,0.0514,0.0554,0.0554,0,0,0,0.0284,0.0295,0.0327,0.0239,0.0269,0.0392,0.0341,0.0457,0.0468,0.0491,0.0505,0.0511,0.0516,0.0554,0.0555,0.0648,0.0648,0,0,0.0277,0.0263,0.0319,0.0333,0.0308,0.0337,0.0345,0.0464,0.0478,0.0506,0.0514,0.0519,0.0555,0.0556,0.0648,0.0648,0,0,0,0.0246,0.0258,0.0287,0.0328,0.0344,0.034,0.0349,0.0474,0.0483,0.0516,0.0521,0.0556,0.0557,0.0647,0.0648,0.0645,0,0,0,0.0242,0.0238,0.0284,0.0277,0.0341,0.041,0.0356,0.0476,0.0489,0.052,0.0556,0.0559,0.0647,0.0647,0.0645,0.065,0,0,0,0.023,0.0237,0.0253,0.0276,0.0321,0.0408,0.0426,0.0479,0.0491,0.0554,0.0559,0.0647,0.0647,0.0645,0.065,0.0696,0,0,0,0.0209,0.0245,0.0253,0.0294,0.032,0.0391,0.0425,0.0491,0.0544,0.0557,0.0647,0.0648,0.0645,0.065,0.0695,0.0612,0,0,0,0.024,0.0249,0.0271,0.028,0.0331,0.0374,0.0437,0.052,0.0551,0.061,0.0613,0.0645,0.065,0.0696,0.0624,0,0,0,0,0.027,0.0287,0.0306,0.0337,0.0382,0.0431,0.0499,0.0531,0.0598,0.058,0.065,0.0653,0.0683,0.0631,0.0649,0.0648,0.0648,0.0648,0.0648,0.0309,0.0315,0.0347,0.0368,0.041,0.0476,0.0526,0.0579,0.0606,0.0629,0.0654,0.0692,0.0635,0.0655,0.0655,0.0655,0.0655,0.0655,0.0655,0.034,0.035,0.036,0.0391,0.0428,0.0481,0.0558,0.0588,0.0666,0.0659,0.0688,0.0634,0.0654,0.0654,0.0655,0.0655,0.0655,0.0655,0.0655,0.0352,0.0352,0.0366,0.039,0.0435,0.049,0.056,0.0617,0.0669,0.07,0.0678,0.0708,0.0707,0.0727,0.0728,0.0728,0.0728,0.0728,0.0728,0.0351,0.036,0.0373,0.0396,0.0423,0.0479,0.0574,0.0627,0.0687,0.0678,0.0716,0.0717,0.0715,0.0713,0.0732,0.0731,0.0731,0.073,0.073,0.0357,0.036,0.0377,0.0397,0.0446,0.0477,0.0563,0.0627,0.0685,0.0699,0.0677,0.0678,0.0682,0.0681,0.0678,0.0688,0.0687,0.0686,0,0.036,0.036,0.0394,0.0423,0.0453,0.0488,0.0532,0.0589,0.064,0.0616,0.0703,0.0677,0.0678,0.068,0.0678,0.0672,0,0,0,0.0362,0.0375,0.0404,0.0428,0.0458,0.0491,0.0544,0.0551,0.0614,0.0632,0.0662,0.0668,0.0702,0.0742,0.0753,0.075,0.0748,0,0]},{"header":{"parameterUnit":"m.s-1","parameterCategory":2,"la1":30.2992,"la2":30.254,"lo1":-89.0895,"lo2":-89.0443,"dy":0.0025,"dx":0.0025,"nx":19,"ny":19,"refTime":"2026-04-03T21:00:00:Z","depth":"4","parameterNumber":3,"parameterNumberName":"V-component_of_CURRENTS"},"data":[0,0,0,0.0488,0.0486,0.0393,0.0393,0.0391,0.0392,0,0,0,0,0,0,0,0,0,0,0,0.0524,0.0523,0.0488,0.0486,0.0393,0.0393,0.0391,0.0392,0,0,0,0,0,0,0,0,0,0,0,0.0524,0.0523,0.0523,0.0485,0.0393,0.0393,0.0391,0.0431,0,0,0,0,0,0,0,0,0,0,0.0506,0.0522,0.0523,0.0523,0.0485,0.0393,0.0393,0.0432,0.0429,0.0468,0,0.0454,0,0.0426,0.0395,0.0395,0,0,0,0.0482,0.0525,0.0502,0.0523,0.0484,0.0394,0.0434,0.0429,0.0426,0.0464,0.0454,0.0452,0.0426,0.0395,0.0395,0.0464,0.0464,0,0,0.0487,0.0507,0.0503,0.05,0.0464,0.0437,0.0431,0.0426,0.0426,0.0453,0.0452,0.0426,0.0395,0.0395,0.0463,0.0464,0,0,0,0.0504,0.0511,0.0485,0.0501,0.0476,0.0434,0.0427,0.0426,0.0418,0.0451,0.0426,0.0395,0.0396,0.0463,0.0463,0.0462,0,0,0,0.0507,0.0521,0.0488,0.0499,0.0475,0.0434,0.0429,0.0418,0.0416,0.0426,0.0395,0.0396,0.0462,0.0463,0.0461,0.0455,0,0,0,0.0527,0.0523,0.0513,0.05,0.0461,0.0432,0.0422,0.0416,0.0402,0.0395,0.0396,0.0462,0.0463,0.046,0.0454,0.0422,0,0,0,0.055,0.0525,0.0514,0.0489,0.0462,0.0436,0.0422,0.0402,0.0397,0.0396,0.0462,0.0463,0.0459,0.0453,0.0422,0.0381,0,0,0,0.0528,0.0523,0.051,0.0497,0.0478,0.0448,0.0445,0.0429,0.043,0.0471,0.0471,0.0461,0.0454,0.0422,0.0442,0,0,0,0,0.051,0.0501,0.0494,0.0482,0.0467,0.0464,0.0446,0.0446,0.0456,0.0431,0.0482,0.0478,0.0457,0.0436,0.0468,0.0468,0.0468,0.0468,0.0468,0.0495,0.0495,0.0488,0.049,0.0488,0.0482,0.0476,0.0482,0.0484,0.0494,0.0492,0.049,0.0471,0.0514,0.0514,0.0514,0.0514,0.0514,0.0514,0.047,0.0463,0.0494,0.0488,0.0512,0.052,0.0522,0.0513,0.0505,0.0517,0.0496,0.0457,0.0514,0.0514,0.0514,0.0514,0.0514,0.0514,0.0514,0.0449,0.0449,0.0465,0.0488,0.0516,0.0531,0.052,0.0517,0.0504,0.0489,0.0442,0.0479,0.0458,0.0468,0.0468,0.0468,0.0468,0.0468,0.0468,0.0415,0.0435,0.0444,0.048,0.0497,0.0507,0.0507,0.0482,0.0467,0.0434,0.0478,0.0474,0.0475,0.0456,0.0465,0.0466,0.0466,0.0466,0.0466,0.0357,0.039,0.0387,0.0407,0.0445,0.0456,0.0469,0.0424,0.0384,0.0352,0.0396,0.04,0.0387,0.039,0.0368,0.0351,0.035,0.035,0,0.0324,0.0339,0.0332,0.0343,0.0359,0.0409,0.0366,0.0351,0.0335,0.033,0.037,0.042,0.0423,0.0411,0.0413,0.0388,0,0,0,0.0289,0.0291,0.0265,0.029,0.0316,0.0326,0.0348,0.0324,0.0355,0.0314,0.0337,0.034,0.0425,0.0459,0.0448,0.045,0.0418,0,0]}]]